Weather in Turgenevka

Russia / Irkutsk Oblast     53°01′36″N   105°40′05″E
temp.,
°C
wind,
m/s
gust,
m/s
humid.,
%
clouds,
%
prec.,
mm/h
press.,
hPa
HPBL,
m
29 june, wed
wed2923:00+20ssw3844100 0.0 1002124
02:00+19nw3869100 0.0 1004283
05:00+16nw2788100 0.0 1005193
08:00+19nnw477792 0.1 1007772
11:00+21n3472100 0.1 10071017
14:00+21nnw347492 0.4 1007683
17:00+26nne335076 0.0 10031670
20:00+23nne3563100 0.1 1004246
30 june, thu
thu3023:00+18ese2192100 1.5 100517
02:00+16ssw2296100 1.6 100521
05:00+15ssw229999 1.0 100550
08:00+17sw359285 3.0 1005403
11:00+18wsw228979 2.4 1005498
14:00+25w235468 2.5 10031368
17:00+27w334695 0.0 10011904
20:00+24w116338 0.0 100219
1 july, fri
fri123:00+19sw117537 0.0 100211
02:00+16sse008838 0.0 100311
05:00+15ese1192100 0.0 100411
08:00+22ne116518 0.0 1003291
11:00+29se22340 0.0 10011829
14:00+32sse33220 0.0 9992690
17:00+32s12200 0.0 9982764
20:00+26ese24414 0.0 998107
2 july, sat
sat223:00+19se226197 0.0 100115
02:00+17ese22635 0.0 100014
05:00+15ssw1171100 0.0 100112
08:00+22sse134963 0.0 1000352
11:00+28w344098 0.0 10001143
14:00+28wsw454384 0.0 10001384
17:00+25w7856100 0.0 1001930
20:00+19nnw5986100 0.4 1003646
3 july, sun
sun323:00+15w2398100 1.1 1006134
02:00+14nw2697100 2.4 1005289
05:00+14w1399100 10.8 1005220
08:00+14wnw2697100 14.1 1006384
11:00+14nw2597100 0.3 1006337
14:00+15nnw3696100 2.1 1005463
17:00+14nnw3798100 4.7 1004454
20:00+14n3796100 4.8 1003443